Location: Juzet
(42.9779°N, 0.7597°E)
Time: 02:59:37
(UTC+00:00)

NOSS 2-1 (E) - Pass Details

Date: 14 July 2020
Orbit: 446 x 1757 km, 63.3° (Epoch: 01 August)

Event Time Altitude Azimuth Distance (km) Brightness Sun altitude
Rises 01:20:42 0° 322° (NW) 3,164 7.6 -23.0°
Reaches altitude 10° 01:22:46 10° 321° (NW) 2,387 6.9 -22.8°
Maximum altitude 01:28:20 81° 236° (SW) 1,029 4.4 -22.5°
Enters shadow 01:34:25 17° 151° (SSE) 2,680 6.4 -22.0°
